Time,TemperatureF,DewpointF,PressureIn,WindDirection,WindDirectionDegrees,WindSpeedMPH,WindSpeedGustMPH,Humidity,HourlyPrecipIn,Conditions,Clouds,dailyrainin,SolarRadiationWatts/m^2,SoftwareType,DateUTC
2013-02-22 00:00:00,34.1,18.3,30.29,ENE,68,1.0,2.0,52,0.00,,,0.00,0,Wunderground v.1.15,2013-02-22 05:00:00,
2013-02-22 00:06:00,34.1,18.3,30.30,ESE,105,1.0,5.0,52,0.00,,,0.00,0,Wunderground v.1.15,2013-02-22 05:06:00,
2013-02-22 00:10:00,34.1,18.3,30.30,East,86,1.0,1.0,52,0.00,,,0.00,0,Wunderground v.1.15,2013-02-22 05:10:00,
2013-02-22 00:14:00,34.0,18.2,30.30,ENE,60,1.0,2.0,52,0.00,,,0.00,0,Wunderground v.1.15,2013-02-22 05:14:00,
2013-02-22 00:20:00,34.0,18.2,30.30,NE,44,3.0,3.0,52,0.00,,,0.00,0,Wunderground v.1.15,2013-02-22 05:20:00,
2013-02-22 00:26:00,33.8,18.0,30.30,ENE,61,4.0,5.0,52,0.00,,,0.00,0,Wunderground v.1.15,2013-02-22 05:26:00,
2013-02-22 00:32:00,33.8,18.0,30.30,ENE,57,5.0,7.0,52,0.00,,,0.00,0,Wunderground v.1.15,2013-02-22 05:32:00,
2013-02-22 00:39:00,33.6,17.8,30.29,NE,48,5.0,7.0,52,0.00,,,0.00,0,Wunderground v.1.15,2013-02-22 05:39:00,
2013-02-22 00:44:00,33.5,17.7,30.30,ENE,58,4.0,5.0,52,0.00,,,0.00,0,Wunderground v.1.15,2013-02-22 05:44:00,
2013-02-22 00:50:00,33.3,18.0,30.31,ENE,60,3.0,3.0,53,0.00,,,0.00,0,Wunderground v.1.15,2013-02-22 05:50:00,
2013-02-22 00:56:00,33.3,17.5,30.32,NE,53,2.0,3.0,52,0.00,,,0.00,0,Wunderground v.1.15,2013-02-22 05:56:00,
2013-02-22 01:02:00,33.2,17.9,30.33,NE,46,1.0,2.0,53,0.00,,,0.00,0,Wunderground v.1.15,2013-02-22 06:02:00,
2013-02-22 01:09:00,33.3,18.0,30.33,ENE,67,1.0,2.0,53,0.00,,,0.00,0,Wunderground v.1.15,2013-02-22 06:09:00,
2013-02-22 01:14:00,33.2,18.3,30.33,NE,46,1.0,1.0,54,0.00,,,0.00,0,Wunderground v.1.15,2013-02-22 06:14:00,
2013-02-22 01:20:00,33.1,17.8,30.32,NE,53,2.0,2.0,53,0.00,,,0.00,0,Wunderground v.1.15,2013-02-22 06:20:00,
2013-02-22 01:26:00,33.1,17.8,30.32,ENE,65,3.0,5.0,53,0.00,,,0.00,0,Wunderground v.1.15,2013-02-22 06:26:00,
2013-02-22 01:32:00,33.0,17.7,30.33,NE,44,3.0,3.0,53,0.00,,,0.00,0,Wunderground v.1.15,2013-02-22 06:32:00,
2013-02-22 01:38:00,32.9,18.1,30.34,NE,50,2.0,3.0,54,0.00,,,0.00,0,Wunderground v.1.15,2013-02-22 06:38:00,
2013-02-22 01:44:00,32.8,18.0,30.34,NE,44,1.0,2.0,54,0.00,,,0.00,0,Wunderground v.1.15,2013-02-22 06:44:00,
2013-02-22 01:50:00,32.8,18.0,30.35,NE,44,1.0,1.0,54,0.00,,,0.00,0,Wunderground v.1.15,2013-02-22 06:50:00,
2013-02-22 01:56:00,32.8,18.0,30.35,NE,44,0.0,1.0,54,0.00,,,0.00,0,Wunderground v.1.15,2013-02-22 06:56:00,
2013-02-22 02:02:00,32.8,17.5,30.36,NE,44,0.0,0.0,53,0.00,,,0.00,0,Wunderground v.1.15,2013-02-22 07:02:00,
2013-02-22 02:09:00,32.7,18.3,30.36,NE,44,0.0,1.0,55,0.00,,,0.00,0,Wunderground v.1.15,2013-02-22 07:09:00,
2013-02-22 02:14:00,32.8,18.0,30.35,NE,44,0.0,1.0,54,0.00,,,0.00,0,Wunderground v.1.15,2013-02-22 07:14:00,
2013-02-22 02:20:00,32.8,18.0,30.34,NE,44,0.0,2.0,54,0.00,,,0.00,0,Wunderground v.1.15,2013-02-22 07:20:00,
2013-02-22 02:26:00,32.7,17.9,30.34,NE,44,1.0,2.0,54,0.00,,,0.00,0,Wunderground v.1.15,2013-02-22 07:26:00,
2013-02-22 02:32:00,32.7,18.3,30.34,NE,44,0.0,1.0,55,0.00,,,0.00,0,Wunderground v.1.15,2013-02-22 07:32:00,
2013-02-22 02:39:00,32.7,18.3,30.34,NE,44,0.0,1.0,55,0.00,,,0.00,0,Wunderground v.1.15,2013-02-22 07:39:00,
2013-02-22 02:44:00,32.6,18.2,30.33,NE,44,0.0,2.0,55,0.00,,,0.00,0,Wunderground v.1.15,2013-02-22 07:44:00,
2013-02-22 02:50:00,32.6,18.2,30.33,NE,44,0.0,0.0,55,0.00,,,0.00,0,Wunderground v.1.15,2013-02-22 07:50:00,
2013-02-22 02:56:00,32.5,18.5,30.32,NE,44,1.0,3.0,56,0.00,,,0.00,0,Wunderground v.1.15,2013-02-22 07:56:00,
2013-02-22 03:02:00,32.5,18.5,30.32,NE,44,1.0,1.0,56,0.00,,,0.00,0,Wunderground v.1.15,2013-02-22 08:02:00,
2013-02-22 03:09:00,32.4,18.4,30.32,NE,44,0.0,1.0,56,0.00,,,0.00,0,Wunderground v.1.15,2013-02-22 08:09:00,
2013-02-22 03:14:00,32.4,18.4,30.32,NE,44,1.0,3.0,56,0.00,,,0.00,0,Wunderground v.1.15,2013-02-22 08:14:00,
2013-02-22 03:20:00,32.3,18.3,30.33,NE,44,1.0,3.0,56,0.00,,,0.00,0,Wunderground v.1.15,2013-02-22 08:20:00,
2013-02-22 03:26:00,32.3,18.3,30.33,NE,51,2.0,3.0,56,0.00,,,0.00,0,Wunderground v.1.15,2013-02-22 08:26:00,
2013-02-22 03:32:00,32.2,18.7,30.33,NE,53,3.0,4.0,57,0.00,,,0.00,0,Wunderground v.1.15,2013-02-22 08:32:00,
2013-02-22 03:39:00,32.1,18.2,30.34,NE,51,1.0,4.0,56,0.00,,,0.00,0,Wunderground v.1.15,2013-02-22 08:39:00,
2013-02-22 03:44:00,32.1,18.2,30.34,NE,51,0.0,1.0,56,0.00,,,0.00,0,Wunderground v.1.15,2013-02-22 08:44:00,
2013-02-22 03:50:00,32.1,17.7,30.34,NE,51,0.0,1.0,55,0.00,,,0.00,0,Wunderground v.1.15,2013-02-22 08:50:00,
2013-02-22 03:56:00,32.1,17.7,30.34,NE,51,0.0,1.0,55,0.00,,,0.00,0,Wunderground v.1.15,2013-02-22 08:56:00,
2013-02-22 04:02:00,32.2,17.8,30.34,NE,51,0.0,0.0,55,0.00,,,0.00,0,Wunderground v.1.15,2013-02-22 09:02:00,
2013-02-22 04:09:00,32.2,17.8,30.33,NE,51,0.0,2.0,55,0.00,,,0.00,0,Wunderground v.1.15,2013-02-22 09:09:00,
2013-02-22 04:14:00,32.2,17.4,30.32,ENE,73,1.0,2.0,54,0.00,,,0.00,0,Wunderground v.1.15,2013-02-22 09:14:00,
2013-02-22 04:20:00,32.3,18.3,30.30,ENE,72,1.0,2.0,56,0.00,,,0.00,0,Wunderground v.1.15,2013-02-22 09:20:00,
2013-02-22 04:26:00,32.2,18.2,30.28,ENE,69,1.0,4.0,56,0.00,,,0.00,0,Wunderground v.1.15,2013-02-22 09:26:00,
2013-02-22 04:32:00,32.1,18.2,30.27,East,88,1.0,3.0,56,0.00,,,0.00,0,Wunderground v.1.15,2013-02-22 09:32:00,
2013-02-22 04:39:00,32.0,18.5,30.27,East,86,1.0,5.0,57,0.00,,,0.00,0,Wunderground v.1.15,2013-02-22 09:39:00,
2013-02-22 04:44:00,31.9,19.2,30.26,East,83,1.0,1.0,59,0.00,,,0.00,0,Wunderground v.1.15,2013-02-22 09:44:00,
2013-02-22 04:50:00,31.7,19.0,30.28,ENE,76,1.0,1.0,59,0.00,,,0.00,0,Wunderground v.1.15,2013-02-22 09:50:00,
2013-02-22 04:56:00,31.7,18.2,30.29,East,79,1.0,2.0,57,0.00,,,0.00,0,Wunderground v.1.15,2013-02-22 09:56:00,
2013-02-22 05:02:00,31.7,17.8,30.30,East,79,0.0,0.0,56,0.00,,,0.00,0,Wunderground v.1.15,2013-02-22 10:02:00,
2013-02-22 05:08:00,31.7,17.8,30.30,East,79,0.0,0.0,56,0.00,,,0.00,0,Wunderground v.1.15,2013-02-22 10:08:00,
2013-02-22 05:14:00,31.7,17.8,30.30,NE,53,1.0,3.0,56,0.00,,,0.00,0,Wunderground v.1.15,2013-02-22 10:14:00,
2013-02-22 05:20:00,31.8,17.9,30.32,NE,53,1.0,1.0,56,0.00,,,0.00,0,Wunderground v.1.15,2013-02-22 10:20:00,
2013-02-22 05:26:00,31.7,17.4,30.32,NE,53,0.0,1.0,55,0.00,,,0.00,0,Wunderground v.1.15,2013-02-22 10:26:00,
2013-02-22 05:32:00,31.7,17.4,30.30,NE,54,0.0,2.0,55,0.00,,,0.00,0,Wunderground v.1.15,2013-02-22 10:32:00,
2013-02-22 05:38:00,31.8,17.5,30.30,NE,51,1.0,2.0,55,0.00,,,0.00,0,Wunderground v.1.15,2013-02-22 10:38:00,
2013-02-22 05:44:00,31.8,18.3,30.29,NE,49,1.0,4.0,57,0.00,,,0.00,0,Wunderground v.1.15,2013-02-22 10:44:00,
2013-02-22 05:50:00,31.7,17.8,30.29,NE,50,1.0,1.0,56,0.00,,,0.00,0,Wunderground v.1.15,2013-02-22 10:50:00,
2013-02-22 05:56:00,31.7,17.8,30.29,East,90,1.0,3.0,56,0.00,,,0.00,0,Wunderground v.1.15,2013-02-22 10:56:00,
2013-02-22 06:02:00,31.7,18.6,30.28,NE,52,1.0,4.0,58,0.00,,,0.00,0,Wunderground v.1.15,2013-02-22 11:02:00,
2013-02-22 06:08:00,31.4,19.1,30.28,NE,36,2.0,4.0,60,0.00,,,0.00,0,Wunderground v.1.15,2013-02-22 11:08:00,
2013-02-22 06:14:00,31.2,20.1,30.28,NE,46,1.0,3.0,63,0.00,,,0.00,0,Wunderground v.1.15,2013-02-22 11:14:00,
2013-02-22 06:20:00,31.1,20.7,30.28,NE,53,2.0,4.0,65,0.00,,,0.00,0,Wunderground v.1.15,2013-02-22 11:20:00,
2013-02-22 06:26:00,30.8,20.8,30.29,NNE,30,3.0,4.0,66,0.00,,,0.00,0,Wunderground v.1.15,2013-02-22 11:26:00,
2013-02-22 06:32:00,30.6,20.9,30.29,NE,47,3.0,3.0,67,0.00,,,0.00,0,Wunderground v.1.15,2013-02-22 11:32:00,
2013-02-22 06:38:00,30.5,20.8,30.29,NE,49,3.0,4.0,67,0.00,,,0.00,0,Wunderground v.1.15,2013-02-22 11:38:00,
2013-02-22 06:44:00,30.6,21.3,30.29,NE,42,3.0,5.0,68,0.00,,,0.00,0,Wunderground v.1.15,2013-02-22 11:44:00,
2013-02-22 06:50:00,30.6,21.6,30.30,NE,40,2.0,2.0,69,0.00,,,0.00,0,Wunderground v.1.15,2013-02-22 11:50:00,
2013-02-22 06:56:00,30.7,21.4,30.30,NE,48,1.0,3.0,68,0.00,,,0.00,0,Wunderground v.1.15,2013-02-22 11:56:00,
2013-02-22 07:02:00,30.7,21.4,30.30,NE,46,1.0,1.0,68,0.00,,,0.00,0,Wunderground v.1.15,2013-02-22 12:02:00,
2013-02-22 07:08:00,30.6,20.6,30.30,NE,42,1.0,1.0,66,0.00,,,0.00,0,Wunderground v.1.15,2013-02-22 12:08:00,
2013-02-22 07:14:00,30.6,20.6,30.30,ENE,67,2.0,5.0,66,0.00,,,0.00,0,Wunderground v.1.15,2013-02-22 12:14:00,
2013-02-22 07:20:00,30.6,21.3,30.29,ENE,65,2.0,2.0,68,0.00,,,0.00,5,Wunderground v.1.15,2013-02-22 12:20:00,
2013-02-22 07:26:00,30.6,21.3,30.28,ENE,77,2.0,2.0,68,0.00,,,0.00,11,Wunderground v.1.15,2013-02-22 12:26:00,
2013-02-22 07:32:00,30.4,21.4,30.29,NNE,22,3.0,4.0,69,0.00,,,0.00,14,Wunderground v.1.15,2013-02-22 12:32:00,
2013-02-22 07:39:00,30.3,21.7,30.29,NE,52,3.0,5.0,70,0.00,,,0.00,21,Wunderground v.1.15,2013-02-22 12:39:00,
2013-02-22 07:44:00,30.3,21.3,30.30,ENE,74,3.0,3.0,69,0.00,,,0.00,23,Wunderground v.1.15,2013-02-22 12:44:00,
2013-02-22 07:50:00,30.3,21.3,30.29,NE,56,3.0,3.0,69,0.00,,,0.00,30,Wunderground v.1.15,2013-02-22 12:50:00,
2013-02-22 07:56:00,30.4,21.8,30.30,ENE,59,2.0,3.0,70,0.00,,,0.00,39,Wunderground v.1.15,2013-02-22 12:56:00,
2013-02-22 08:02:00,30.4,22.1,30.30,ENE,57,2.0,3.0,71,0.00,,,0.00,33,Wunderground v.1.15,2013-02-22 13:02:00,
2013-02-22 08:09:00,30.3,22.0,30.31,NNE,28,1.0,3.0,71,0.00,,,0.00,23,Wunderground v.1.15,2013-02-22 13:09:00,
2013-02-22 08:14:00,30.2,22.6,30.31,NE,54,2.0,2.0,73,0.00,,,0.00,21,Wunderground v.1.15,2013-02-22 13:14:00,
2013-02-22 08:20:00,30.0,23.0,30.31,NE,37,1.0,1.0,75,0.00,,,0.00,28,Wunderground v.1.15,2013-02-22 13:20:00,
2013-02-22 08:26:00,29.9,23.3,30.31,NE,34,1.0,2.0,76,0.00,,,0.00,39,Wunderground v.1.15,2013-02-22 13:26:00,
2013-02-22 08:32:00,29.9,23.6,30.32,NE,41,1.0,1.0,77,0.00,,,0.00,54,Wunderground v.1.15,2013-02-22 13:32:00,
2013-02-22 08:38:00,29.9,23.6,30.32,NE,41,1.0,1.0,77,0.00,,,0.00,33,Wunderground v.1.15,2013-02-22 13:38:00,
2013-02-22 08:44:00,29.9,23.6,30.32,East,101,0.0,1.0,77,0.00,,,0.00,33,Wunderground v.1.15,2013-02-22 13:44:00,
2013-02-22 08:50:00,29.8,23.5,30.32,East,101,0.0,0.0,77,0.00,,,0.00,42,Wunderground v.1.15,2013-02-22 13:50:00,
2013-02-22 08:56:00,29.9,23.6,30.31,East,101,0.0,0.0,77,0.00,,,0.00,63,Wunderground v.1.15,2013-02-22 13:56:00,
2013-02-22 09:02:00,30.1,23.4,30.32,East,100,0.0,2.0,76,0.00,,,0.00,83,Wunderground v.1.15,2013-02-22 14:02:00,
2013-02-22 09:08:00,30.2,23.5,30.32,ENE,61,0.0,2.0,76,0.00,,,0.00,63,Wunderground v.1.15,2013-02-22 14:08:00,
2013-02-22 09:14:00,30.1,23.1,30.32,East,86,0.0,0.0,75,0.00,,,0.00,65,Wunderground v.1.15,2013-02-22 14:14:00,
2013-02-22 09:20:00,30.2,23.2,30.32,NE,53,0.0,4.0,75,0.00,,,0.00,81,Wunderground v.1.15,2013-02-22 14:20:00,
2013-02-22 09:26:00,30.3,23.3,30.32,ENE,71,1.0,4.0,75,0.00,,,0.00,79,Wunderground v.1.15,2013-02-22 14:26:00,
2013-02-22 09:32:00,30.2,22.9,30.32,ENE,71,0.0,0.0,74,0.00,,,0.00,77,Wunderground v.1.15,2013-02-22 14:32:00,
2013-02-22 09:39:00,30.4,23.4,30.32,ENE,62,0.0,0.0,75,0.00,,,0.00,72,Wunderground v.1.15,2013-02-22 14:39:00,
2013-02-22 09:44:00,30.5,23.2,30.32,ENE,62,0.0,2.0,74,0.00,,,0.00,88,Wunderground v.1.15,2013-02-22 14:44:00,
2013-02-22 09:50:00,30.2,22.3,30.32,ENE,62,0.0,0.0,72,0.00,,,0.00,102,Wunderground v.1.15,2013-02-22 14:50:00,
2013-02-22 09:56:00,30.4,23.1,30.32,ENE,62,0.0,0.0,74,0.00,,,0.00,127,Wunderground v.1.15,2013-02-22 14:56:00,
2013-02-22 10:02:00,30.8,23.8,30.31,ENE,62,0.0,0.0,75,0.00,,,0.00,158,Wunderground v.1.15,2013-02-22 15:02:00,
2013-02-22 10:09:00,31.4,24.7,30.31,ENE,62,0.0,0.0,76,0.00,,,0.00,167,Wunderground v.1.15,2013-02-22 15:09:00,
2013-02-22 10:14:00,31.4,24.1,30.31,SSE,148,1.0,3.0,74,0.00,,,0.00,186,Wunderground v.1.15,2013-02-22 15:14:00,
2013-02-22 10:20:00,31.5,24.2,30.31,SE,146,1.0,1.0,74,0.00,,,0.00,156,Wunderground v.1.15,2013-02-22 15:20:00,
2013-02-22 10:26:00,31.6,23.6,30.31,SE,145,0.0,1.0,72,0.00,,,0.00,123,Wunderground v.1.15,2013-02-22 15:26:00,
2013-02-22 10:32:00,31.5,23.8,30.31,NE,41,0.0,0.0,73,0.00,,,0.00,130,Wunderground v.1.15,2013-02-22 15:32:00,
2013-02-22 10:39:00,31.6,24.3,30.31,NE,41,0.0,1.0,74,0.00,,,0.00,123,Wunderground v.1.15,2013-02-22 15:39:00,
2013-02-22 10:44:00,31.6,23.9,30.30,NE,41,0.0,0.0,73,0.00,,,0.00,162,Wunderground v.1.15,2013-02-22 15:44:00,
2013-02-22 10:50:00,31.8,24.1,30.30,NE,56,1.0,1.0,73,0.00,,,0.00,255,Wunderground v.1.15,2013-02-22 15:50:00,
2013-02-22 10:56:00,32.2,24.5,30.29,East,92,1.0,1.0,73,0.00,,,0.00,178,Wunderground v.1.15,2013-02-22 15:56:00,
2013-02-22 11:02:00,31.9,24.2,30.29,East,92,0.0,0.0,73,0.00,,,0.00,158,Wunderground v.1.15,2013-02-22 16:02:00,
2013-02-22 11:09:00,32.0,23.7,30.28,NE,46,1.0,2.0,71,0.00,,,0.00,207,Wunderground v.1.15,2013-02-22 16:09:00,
2013-02-22 11:14:00,32.6,25.2,30.29,NE,51,1.0,2.0,74,0.00,,,0.00,279,Wunderground v.1.15,2013-02-22 16:14:00,
2013-02-22 11:20:00,32.8,24.4,30.29,SSE,164,1.0,2.0,71,0.00,,,0.00,290,Wunderground v.1.15,2013-02-22 16:20:00,
2013-02-22 11:26:00,33.0,24.6,30.29,NE,49,1.0,2.0,71,0.00,,,0.00,248,Wunderground v.1.15,2013-02-22 16:26:00,
2013-02-22 11:32:00,33.2,25.1,30.29,ENE,77,1.0,2.0,72,0.00,,,0.00,214,Wunderground v.1.15,2013-02-22 16:32:00,
2013-02-22 11:39:00,32.5,24.1,30.30,ENE,77,0.0,2.0,71,0.00,,,0.00,151,Wunderground v.1.15,2013-02-22 16:39:00,
2013-02-22 11:44:00,32.3,23.9,30.30,ENE,77,0.0,1.0,71,0.00,,,0.00,123,Wunderground v.1.15,2013-02-22 16:44:00,
2013-02-22 11:50:00,32.3,23.6,30.30,ENE,77,0.0,0.0,70,0.00,,,0.00,151,Wunderground v.1.15,2013-02-22 16:50:00,
2013-02-22 11:56:00,32.8,24.1,30.30,ENE,77,0.0,0.0,70,0.00,,,0.00,237,Wunderground v.1.15,2013-02-22 16:56:00,
2013-02-22 12:02:00,33.5,24.4,30.29,SSE,161,1.0,2.0,69,0.00,,,0.00,299,Wunderground v.1.15,2013-02-22 17:02:00,
2013-02-22 12:09:00,33.7,25.0,30.29,SSE,162,1.0,2.0,70,0.00,,,0.00,278,Wunderground v.1.15,2013-02-22 17:09:00,
2013-02-22 12:14:00,33.7,25.0,30.28,SSE,161,0.0,1.0,70,0.00,,,0.00,517,Wunderground v.1.15,2013-02-22 17:14:00,
2013-02-22 12:20:00,34.6,25.1,30.28,SSE,153,0.0,1.0,68,0.00,,,0.00,325,Wunderground v.1.15,2013-02-22 17:20:00,
2013-02-22 12:26:00,34.5,24.7,30.27,SSE,148,1.0,4.0,67,0.00,,,0.00,278,Wunderground v.1.15,2013-02-22 17:26:00,
2013-02-22 12:32:00,34.6,24.4,30.27,SSE,165,1.0,2.0,66,0.00,,,0.00,401,Wunderground v.1.15,2013-02-22 17:32:00,
2013-02-22 12:38:00,34.2,24.4,30.27,SE,130,1.0,2.0,67,0.00,,,0.00,204,Wunderground v.1.15,2013-02-22 17:38:00,